Location: ?????????
(41.2393°N, 22.9479°E)
Time: 06:00:36
(UTC+00:00)

ISS - Pass Details

Date: 17 November 2025
Orbit: 416 x 420 km, 51.6° (Epoch: 09 December)

Event Time Altitude Azimuth Distance (km) Brightness Sun altitude
Rises 15:33:00 0° 240° (WSW) 2,360 2.4 -5.3°
Reaches altitude 10° 15:35:06 10° 244° (WSW) 1,498 0.9 -5.7°
Maximum altitude 15:38:26 64° 326° (NNW) 468 -3.4 -6.2°
Drops below altitude 10° 15:41:47 10° 50° (NE) 1,500 -1.5 -6.8°
Enters shadow 15:42:13 - 50° (NE) 1,670 -1.3 -6.9°
